Location: Chircca
(13.7944°S, 72.0608°W)
Time: 05:45:12
(UTC+00:00)

Cosmos 2237 Rocket - Pass Details

Date: 14 July 2020
Orbit: 834 x 850 km, 71.0° (Epoch: 07 August)

Event Time Altitude Azimuth Distance (km) Brightness Sun altitude
Rises 01:00:38 0° 216° (SW) 3,406 5.6 -34.1°
Reaches altitude 10° 01:03:26 10° 228° (SW) 2,469 4.9 -34.8°
Maximum altitude 01:08:05 27° 283° (WNW) 1,586 4.1 -35.9°
Drops below altitude 10° 01:12:44 10° 339° (NNW) 2,459 5.0 -36.9°
Sets 01:15:32 0° 351° (N) 3,391 5.6 -37.6°
